Time,TemperatureF,DewpointF,PressureIn,WindDirection,WindDirectionDegrees,WindSpeedMPH,WindSpeedGustMPH,Humidity,HourlyPrecipIn,Conditions,Clouds,dailyrainin,SoftwareType,DateUTC
2013-04-19 00:04:00,52.2,43.4,30.06,SSE,159,1.0,3.0,72,0.00,CLR,,0.00,WeatherDisplay:10.37,2013-04-19 04:04:00,
2013-04-19 00:09:00,52.2,43.4,30.06,SW,217,0.0,1.0,72,0.00,CLR,,0.00,WeatherDisplay:10.37,2013-04-19 04:09:00,
2013-04-19 00:14:00,52.2,43.4,30.06,SSW,212,0.0,2.0,72,0.00,CLR,,0.00,WeatherDisplay:10.37,2013-04-19 04:14:00,
2013-04-19 00:19:00,52.2,43.4,30.06,NNE,18,1.0,1.0,72,0.00,CLR,,0.00,WeatherDisplay:10.37,2013-04-19 04:19:00,
2013-04-19 00:24:00,52.2,43.8,30.06,West,276,0.0,1.0,73,0.00,CLR,,0.00,WeatherDisplay:10.37,2013-04-19 04:24:00,
2013-04-19 00:29:00,52.2,43.8,30.06,SSW,206,0.0,1.0,73,0.00,CLR,,0.00,WeatherDisplay:10.37,2013-04-19 04:29:00,
2013-04-19 00:34:00,52.2,43.8,30.06,SSW,200,1.0,2.0,73,0.00,CLR,,0.00,WeatherDisplay:10.37,2013-04-19 04:34:00,
2013-04-19 00:39:00,52.2,43.8,30.06,SSW,201,0.0,1.0,73,0.00,CLR,,0.00,WeatherDisplay:10.37,2013-04-19 04:39:00,
2013-04-19 00:44:00,52.2,43.8,30.06,SSW,209,0.0,0.0,73,0.00,CLR,,0.00,WeatherDisplay:10.37,2013-04-19 04:44:00,
2013-04-19 00:49:00,52.2,44.1,30.06,SW,217,0.0,1.0,74,0.00,CLR,,0.00,WeatherDisplay:10.37,2013-04-19 04:49:00,
2013-04-19 00:54:00,52.2,44.1,30.06,SSW,197,1.0,2.0,74,0.00,CLR,,0.00,WeatherDisplay:10.37,2013-04-19 04:54:00,
2013-04-19 00:59:00,52.2,44.1,30.03,SW,221,0.0,2.0,74,0.00,CLR,,0.00,WeatherDisplay:10.37,2013-04-19 04:59:00,
2013-04-19 01:04:00,52.2,44.1,30.03,SW,215,0.0,0.0,74,0.00,CLR,,0.00,WeatherDisplay:10.37,2013-04-19 05:04:00,
2013-04-19 01:09:00,52.2,44.1,30.03,South,184,0.0,0.0,74,0.00,CLR,,0.00,WeatherDisplay:10.37,2013-04-19 05:09:00,
2013-04-19 01:14:00,52.2,44.1,30.03,South,178,1.0,3.0,74,0.00,CLR,,0.00,WeatherDisplay:10.37,2013-04-19 05:14:00,
2013-04-19 01:19:00,52.2,44.1,30.03,SSE,162,0.0,0.0,74,0.00,CLR,,0.00,WeatherDisplay:10.37,2013-04-19 05:19:00,
2013-04-19 01:24:00,52.2,44.1,30.03,ESE,123,0.0,1.0,74,0.00,CLR,,0.00,WeatherDisplay:10.37,2013-04-19 05:24:00,
2013-04-19 01:29:00,52.3,44.6,30.03,SE,142,0.0,1.0,75,0.00,CLR,,0.00,WeatherDisplay:10.37,2013-04-19 05:29:00,
2013-04-19 01:34:00,52.3,44.6,30.03,SSE,164,0.0,1.0,75,0.00,CLR,,0.00,WeatherDisplay:10.37,2013-04-19 05:34:00,
2013-04-19 01:39:00,52.3,44.3,30.03,South,188,0.0,1.0,74,0.00,CLR,,0.00,WeatherDisplay:10.37,2013-04-19 05:39:00,
2013-04-19 01:44:00,52.3,44.6,30.03,WSW,237,0.0,1.0,75,0.00,CLR,,0.00,WeatherDisplay:10.37,2013-04-19 05:44:00,
2013-04-19 01:49:00,52.3,44.6,30.03,WNW,300,0.0,0.0,75,0.00,CLR,,0.00,WeatherDisplay:10.37,2013-04-19 05:49:00,
2013-04-19 01:54:00,52.3,44.6,30.03,NNE,25,0.0,0.0,75,0.00,CLR,,0.00,WeatherDisplay:10.37,2013-04-19 05:54:00,
2013-04-19 01:59:00,52.3,44.6,30.00,South,177,0.0,0.0,75,0.00,CLR,,0.00,WeatherDisplay:10.37,2013-04-19 05:59:00,
2013-04-19 02:04:00,52.3,44.6,30.00,SSE,166,0.0,0.0,75,0.00,CLR,,0.00,WeatherDisplay:10.37,2013-04-19 06:04:00,
2013-04-19 02:09:00,52.3,44.6,30.00,SE,144,0.0,1.0,75,0.00,CLR,,0.00,WeatherDisplay:10.37,2013-04-19 06:09:00,
2013-04-19 02:14:00,52.5,44.8,30.00,SE,131,0.0,0.0,75,0.00,CLR,,0.00,WeatherDisplay:10.37,2013-04-19 06:14:00,
2013-04-19 02:19:00,52.5,45.2,30.00,ESE,102,0.0,0.0,76,0.00,CLR,,0.00,WeatherDisplay:10.37,2013-04-19 06:19:00,
2013-04-19 02:24:00,52.5,45.2,30.00,ESE,115,0.0,1.0,76,0.00,CLR,,0.00,WeatherDisplay:10.37,2013-04-19 06:24:00,
2013-04-19 02:29:00,52.5,45.2,30.00,South,184,0.0,0.0,76,0.00,CLR,,0.00,WeatherDisplay:10.37,2013-04-19 06:29:00,
2013-04-19 02:34:00,52.5,45.2,30.00,SSE,168,0.0,0.0,76,0.00,CLR,,0.00,WeatherDisplay:10.37,2013-04-19 06:34:00,
2013-04-19 02:39:00,52.5,45.5,30.00,SE,139,0.0,0.0,77,0.00,CLR,,0.00,WeatherDisplay:10.37,2013-04-19 06:39:00,
2013-04-19 02:44:00,52.5,45.5,30.00,ESE,114,0.0,0.0,77,0.00,CLR,,0.00,WeatherDisplay:10.37,2013-04-19 06:44:00,
2013-04-19 02:49:00,52.5,45.5,30.00,WNW,286,0.0,0.0,77,0.00,CLR,,0.00,WeatherDisplay:10.37,2013-04-19 06:49:00,
2013-04-19 02:54:00,52.5,45.5,30.00,WSW,241,0.0,0.0,77,0.00,CLR,,0.00,WeatherDisplay:10.37,2013-04-19 06:54:00,
2013-04-19 02:59:00,52.5,45.9,29.97,SSE,156,0.0,0.0,78,0.00,CLR,,0.00,WeatherDisplay:10.37,2013-04-19 06:59:00,
2013-04-19 03:04:00,52.5,46.2,29.97,SE,141,0.0,0.0,79,0.00,CLR,,0.00,WeatherDisplay:10.37,2013-04-19 07:04:00,
2013-04-19 03:09:00,52.5,45.9,29.97,SSE,157,0.0,0.0,78,0.00,CLR,,0.00,WeatherDisplay:10.37,2013-04-19 07:09:00,
2013-04-19 03:14:00,52.5,45.9,29.97,SE,129,0.0,2.0,78,0.00,CLR,,0.00,WeatherDisplay:10.37,2013-04-19 07:14:00,
2013-04-19 03:19:00,52.5,45.9,29.97,ENE,78,0.0,0.0,78,0.00,CLR,,0.00,WeatherDisplay:10.37,2013-04-19 07:19:00,
2013-04-19 03:24:00,52.5,46.2,29.97,ENE,77,0.0,1.0,79,0.00,CLR,,0.00,WeatherDisplay:10.37,2013-04-19 07:24:00,
2013-04-19 03:29:00,52.7,46.4,29.97,SE,133,0.0,1.0,79,0.00,CLR,,0.00,WeatherDisplay:10.37,2013-04-19 07:29:00,
2013-04-19 03:34:00,52.7,46.4,29.97,ESE,112,0.0,0.0,79,0.00,CLR,,0.00,WeatherDisplay:10.37,2013-04-19 07:34:00,
2013-04-19 03:39:00,52.7,46.4,29.97,ENE,70,0.0,1.0,79,0.00,CLR,,0.00,WeatherDisplay:10.37,2013-04-19 07:39:00,
2013-04-19 03:44:00,52.7,46.4,29.97,SW,214,0.0,2.0,79,0.00,CLR,,0.00,WeatherDisplay:10.37,2013-04-19 07:44:00,
2013-04-19 03:49:00,52.7,46.4,29.97,SSW,209,0.0,2.0,79,0.00,CLR,,0.00,WeatherDisplay:10.37,2013-04-19 07:49:00,
2013-04-19 03:54:00,52.7,46.7,29.97,SSW,196,0.0,0.0,80,0.00,CLR,,0.00,WeatherDisplay:10.37,2013-04-19 07:54:00,
2013-04-19 03:59:00,52.9,46.9,29.97,South,190,0.0,0.0,80,0.00,CLR,,0.00,WeatherDisplay:10.37,2013-04-19 07:59:00,
2013-04-19 04:04:00,52.9,46.9,29.97,South,180,0.0,0.0,80,0.00,CLR,,0.00,WeatherDisplay:10.37,2013-04-19 08:04:00,
2013-04-19 04:09:00,52.9,46.9,29.97,South,180,0.0,0.0,80,0.00,CLR,,0.00,WeatherDisplay:10.37,2013-04-19 08:09:00,
2013-04-19 04:14:00,52.9,46.9,29.97,SSE,160,0.0,0.0,80,0.00,CLR,,0.00,WeatherDisplay:10.37,2013-04-19 08:14:00,
2013-04-19 04:19:00,52.9,46.9,29.97,SSE,153,1.0,2.0,80,0.00,CLR,,0.00,WeatherDisplay:10.37,2013-04-19 08:19:00,
2013-04-19 04:24:00,52.9,46.9,29.97,SSE,155,0.0,0.0,80,0.00,CLR,,0.00,WeatherDisplay:10.37,2013-04-19 08:24:00,
2013-04-19 04:29:00,53.1,47.4,29.97,SSE,156,0.0,0.0,81,0.00,CLR,,0.00,WeatherDisplay:10.37,2013-04-19 08:29:00,
2013-04-19 04:34:00,53.1,47.4,29.97,SSE,163,1.0,1.0,81,0.00,CLR,,0.00,WeatherDisplay:10.37,2013-04-19 08:34:00,
2013-04-19 04:39:00,53.1,47.7,29.97,SSE,158,0.0,1.0,82,0.00,CLR,,0.00,WeatherDisplay:10.37,2013-04-19 08:39:00,
2013-04-19 04:44:00,53.1,47.7,29.94,South,170,2.0,2.0,82,0.00,CLR,,0.00,WeatherDisplay:10.37,2013-04-19 08:44:00,
2013-04-19 04:49:00,53.1,47.7,29.94,SSE,159,0.0,2.0,82,0.00,CLR,,0.00,WeatherDisplay:10.37,2013-04-19 08:49:00,
2013-04-19 04:54:00,53.2,48.2,29.94,South,184,0.0,1.0,83,0.00,CLR,,0.00,WeatherDisplay:10.37,2013-04-19 08:54:00,
2013-04-19 04:59:00,53.4,48.4,29.94,SSE,166,0.0,2.0,83,0.00,CLR,,0.00,WeatherDisplay:10.37,2013-04-19 08:59:00,
2013-04-19 05:04:00,53.4,48.7,29.94,SSE,156,0.0,0.0,84,0.00,CLR,,0.00,WeatherDisplay:10.37,2013-04-19 09:04:00,
2013-04-19 05:09:00,53.4,48.7,29.94,SW,220,0.0,0.0,84,0.00,CLR,,0.00,WeatherDisplay:10.37,2013-04-19 09:09:00,
2013-04-19 05:14:00,53.6,48.9,29.91,West,273,0.0,1.0,84,0.00,CLR,,0.00,WeatherDisplay:10.37,2013-04-19 09:14:00,
2013-04-19 05:19:00,53.6,48.9,29.91,SW,229,0.0,1.0,84,0.00,CLR,,0.00,WeatherDisplay:10.37,2013-04-19 09:19:00,
2013-04-19 05:24:00,53.6,48.9,29.91,SSE,155,0.0,2.0,84,0.00,CLR,,0.00,WeatherDisplay:10.37,2013-04-19 09:24:00,
2013-04-19 05:29:00,53.8,49.1,29.94,South,174,0.0,3.0,84,0.00,CLR,,0.00,WeatherDisplay:10.37,2013-04-19 09:29:00,
2013-04-19 05:34:00,54.0,49.2,29.94,SSW,196,0.0,1.0,84,0.00,CLR,,0.00,WeatherDisplay:10.37,2013-04-19 09:34:00,
2013-04-19 05:39:00,54.0,49.2,29.94,WSW,247,2.0,2.0,84,0.00,CLR,,0.00,WeatherDisplay:10.37,2013-04-19 09:39:00,
2013-04-19 05:44:00,54.0,49.2,29.94,SW,214,0.0,2.0,84,0.00,CLR,,0.00,WeatherDisplay:10.37,2013-04-19 09:44:00,
2013-04-19 05:49:00,54.1,49.7,29.94,South,190,2.0,2.0,85,0.00,CLR,,0.00,WeatherDisplay:10.37,2013-04-19 09:49:00,
2013-04-19 05:54:00,54.1,49.7,29.94,WSW,250,0.0,2.0,85,0.00,CLR,,0.00,WeatherDisplay:10.37,2013-04-19 09:54:00,
2013-04-19 05:59:00,54.3,49.9,29.94,WSW,237,1.0,3.0,85,0.00,CLR,,0.00,WeatherDisplay:10.37,2013-04-19 09:59:00,
2013-04-19 06:04:00,54.3,49.9,29.94,SW,232,0.0,2.0,85,0.00,CLR,,0.00,WeatherDisplay:10.37,2013-04-19 10:04:00,
2013-04-19 06:09:00,54.3,49.9,29.94,WSW,253,2.0,2.0,85,0.00,CLR,,0.00,WeatherDisplay:10.37,2013-04-19 10:09:00,
2013-04-19 06:14:00,54.6,50.5,29.94,West,262,1.0,3.0,86,0.00,CLR,,0.00,WeatherDisplay:10.37,2013-04-19 10:14:00,
2013-04-19 06:19:00,54.7,50.6,29.94,South,188,1.0,3.0,86,0.00,CLR,,0.00,WeatherDisplay:10.37,2013-04-19 10:19:00,
2013-04-19 06:24:00,54.7,50.6,29.94,SE,142,0.0,1.0,86,0.00,CLR,,0.00,WeatherDisplay:10.37,2013-04-19 10:24:00,
2013-04-19 06:29:00,54.7,50.6,29.94,SE,140,0.0,0.0,86,0.00,CLR,,0.00,WeatherDisplay:10.37,2013-04-19 10:29:00,
2013-04-19 06:34:00,54.9,50.8,29.94,SSE,160,0.0,4.0,86,0.00,CLR,,0.00,WeatherDisplay:10.37,2013-04-19 10:34:00,
2013-04-19 06:39:00,55.0,50.9,29.94,South,184,0.0,2.0,86,0.00,CLR,,0.00,WeatherDisplay:10.37,2013-04-19 10:39:00,
2013-04-19 06:44:00,55.0,50.9,29.94,SSW,206,1.0,2.0,86,0.00,CLR,,0.00,WeatherDisplay:10.37,2013-04-19 10:44:00,
2013-04-19 06:49:00,55.2,51.1,29.94,West,262,1.0,2.0,86,0.00,CLR,,0.00,WeatherDisplay:10.37,2013-04-19 10:49:00,
2013-04-19 06:54:00,55.2,51.1,29.94,WSW,249,2.0,3.0,86,0.00,CLR,,0.00,WeatherDisplay:10.37,2013-04-19 10:54:00,
2013-04-19 06:59:00,55.4,51.3,29.94,SSW,207,0.0,3.0,86,0.00,CLR,,0.00,WeatherDisplay:10.37,2013-04-19 10:59:00,
2013-04-19 07:04:00,55.6,51.5,29.94,South,169,0.0,1.0,86,0.00,CLR,,0.00,WeatherDisplay:10.37,2013-04-19 11:04:00,
2013-04-19 07:09:00,55.6,51.5,29.94,SSW,197,1.0,3.0,86,0.00,CLR,,0.00,WeatherDisplay:10.37,2013-04-19 11:09:00,
2013-04-19 07:14:00,55.8,51.6,29.94,South,185,0.0,0.0,86,0.00,CLR,,0.00,WeatherDisplay:10.37,2013-04-19 11:14:00,
2013-04-19 07:19:00,55.8,51.6,29.94,SSW,207,3.0,3.0,86,0.00,CLR,,0.00,WeatherDisplay:10.37,2013-04-19 11:19:00,
2013-04-19 07:24:00,55.9,51.5,29.94,SSW,207,0.0,1.0,85,0.00,CLR,,0.00,WeatherDisplay:10.37,2013-04-19 11:24:00,
2013-04-19 07:29:00,55.9,51.8,29.94,SSE,165,1.0,1.0,86,0.00,CLR,,0.00,WeatherDisplay:10.37,2013-04-19 11:29:00,
2013-04-19 07:34:00,56.0,51.9,29.94,SSE,165,0.0,1.0,86,0.00,CLR,,0.00,WeatherDisplay:10.37,2013-04-19 11:34:00,
2013-04-19 07:39:00,56.1,52.0,29.94,South,185,1.0,2.0,86,0.00,CLR,,0.00,WeatherDisplay:10.37,2013-04-19 11:39:00,
2013-04-19 07:44:00,56.3,52.2,29.91,SSW,204,0.0,1.0,86,0.00,CLR,,0.00,WeatherDisplay:10.37,2013-04-19 11:44:00,
2013-04-19 07:49:00,56.5,52.3,29.91,South,179,1.0,1.0,86,0.00,CLR,,0.00,WeatherDisplay:10.37,2013-04-19 11:49:00,
2013-04-19 07:54:00,56.7,52.5,29.91,South,186,0.0,2.0,86,0.00,CLR,,0.00,WeatherDisplay:10.37,2013-04-19 11:54:00,
2013-04-19 07:59:00,56.8,52.7,29.91,West,264,1.0,1.0,86,0.00,CLR,,0.00,WeatherDisplay:10.37,2013-04-19 11:59:00,
2013-04-19 08:04:00,57.0,52.9,29.91,SW,232,1.0,3.0,86,0.00,CLR,,0.00,WeatherDisplay:10.37,2013-04-19 12:04:00,
2013-04-19 08:09:00,57.2,53.0,29.91,WSW,240,1.0,2.0,86,0.00,CLR,,0.00,WeatherDisplay:10.37,2013-04-19 12:09:00,
2013-04-19 08:14:00,57.5,53.3,29.91,West,267,2.0,3.0,86,0.00,CLR,,0.00,WeatherDisplay:10.37,2013-04-19 12:14:00,
2013-04-19 08:19:00,57.6,53.4,29.91,SW,236,1.0,3.0,86,0.00,CLR,,0.00,WeatherDisplay:10.37,2013-04-19 12:19:00,
2013-04-19 08:24:00,57.7,53.6,29.91,SW,221,0.0,2.0,86,0.00,CLR,,0.00,WeatherDisplay:10.37,2013-04-19 12:24:00,
2013-04-19 08:29:00,57.8,53.7,29.94,SW,223,1.0,2.0,86,0.00,CLR,,0.00,WeatherDisplay:10.37,2013-04-19 12:29:00,
2013-04-19 08:34:00,57.9,53.8,29.94,SSW,198,2.0,3.0,86,0.00,CLR,,0.00,WeatherDisplay:10.37,2013-04-19 12:34:00,
2013-04-19 08:39:00,58.1,53.9,29.94,SSE,158,0.0,2.0,86,0.00,CLR,,0.00,WeatherDisplay:10.37,2013-04-19 12:39:00,
2013-04-19 08:44:00,58.1,53.9,29.91,SSW,197,1.0,6.0,86,0.00,CLR,,0.00,WeatherDisplay:10.37,2013-04-19 12:44:00,
2013-04-19 08:49:00,58.3,54.1,29.91,South,190,1.0,2.0,86,0.00,CLR,,0.00,WeatherDisplay:10.37,2013-04-19 12:49:00,
2013-04-19 08:54:00,58.5,54.3,29.91,SSE,160,1.0,2.0,86,0.00,CLR,,0.00,WeatherDisplay:10.37,2013-04-19 12:54:00,
2013-04-19 08:59:00,58.7,54.6,29.91,SSE,167,0.0,5.0,86,0.00,CLR,,0.00,WeatherDisplay:10.37,2013-04-19 12:59:00,
2013-04-19 09:04:00,59.0,54.5,29.91,SSE,155,1.0,2.0,85,0.00,CLR,,0.00,WeatherDisplay:10.37,2013-04-19 13:04:00,
2013-04-19 09:09:00,59.2,54.7,29.91,SSE,165,0.0,2.0,85,0.00,CLR,,0.00,WeatherDisplay:10.37,2013-04-19 13:09:00,
2013-04-19 09:14:00,59.7,55.2,29.91,SSE,157,0.0,2.0,85,0.00,CLR,,0.00,WeatherDisplay:10.37,2013-04-19 13:14:00,
2013-04-19 09:19:00,60.3,55.7,29.91,SSW,198,2.0,3.0,85,0.00,CLR,,0.00,WeatherDisplay:10.37,2013-04-19 13:19:00,
2013-04-19 09:24:00,60.8,56.2,29.91,WSW,241,2.0,2.0,85,0.00,CLR,,0.00,WeatherDisplay:10.37,2013-04-19 13:24:00,
2013-04-19 09:29:00,60.8,55.9,29.91,SSW,194,2.0,3.0,84,0.00,CLR,,0.00,WeatherDisplay:10.37,2013-04-19 13:29:00,
2013-04-19 09:34:00,60.8,55.9,29.91,SSE,156,2.0,3.0,84,0.00,CLR,,0.00,WeatherDisplay:10.37,2013-04-19 13:34:00,
2013-04-19 09:39:00,61.0,56.4,29.91,SSE,161,1.0,2.0,85,0.00,CLR,,0.00,WeatherDisplay:10.37,2013-04-19 13:39:00,
2013-04-19 09:44:00,61.3,56.5,29.91,SSW,201,1.0,3.0,84,0.00,CLR,,0.00,WeatherDisplay:10.37,2013-04-19 13:44:00,
2013-04-19 09:49:00,61.7,56.8,29.91,SSW,196,1.0,2.0,84,0.00,CLR,,0.00,WeatherDisplay:10.37,2013-04-19 13:49:00,
2013-04-19 09:54:00,61.9,57.0,29.91,SSW,199,1.0,4.0,84,0.00,CLR,,0.00,WeatherDisplay:10.37,2013-04-19 13:54:00,
2013-04-19 09:59:00,62.1,57.2,29.91,SSW,208,1.0,3.0,84,0.00,CLR,,0.00,WeatherDisplay:10.37,2013-04-19 13:59:00,
2013-04-19 10:04:00,62.3,57.4,29.91,SSW,200,1.0,5.0,84,0.00,CLR,,0.00,WeatherDisplay:10.37,2013-04-19 14:04:00,
2013-04-19 10:09:00,62.8,57.5,29.91,SW,217,3.0,6.0,83,0.00,CLR,,0.00,WeatherDisplay:10.37,2013-04-19 14:09:00,
2013-04-19 10:14:00,63.1,57.9,29.91,WSW,244,0.0,6.0,83,0.00,CLR,,0.00,WeatherDisplay:10.37,2013-04-19 14:14:00,
2013-04-19 10:19:00,63.3,58.1,29.91,WSW,239,2.0,3.0,83,0.00,CLR,,0.00,WeatherDisplay:10.37,2013-04-19 14:19:00,
2013-04-19 10:24:00,63.5,58.2,29.91,SSE,164,1.0,3.0,83,0.00,CLR,,0.00,WeatherDisplay:10.37,2013-04-19 14:24:00,
2013-04-19 10:29:00,63.7,58.4,29.91,South,190,2.0,5.0,83,0.00,CLR,,0.00,WeatherDisplay:10.37,2013-04-19 14:29:00,
2013-04-19 10:34:00,63.9,58.6,29.91,SSW,193,0.0,2.0,83,0.00,CLR,,0.00,WeatherDisplay:10.37,2013-04-19 14:34:00,
2013-04-19 10:39:00,64.2,58.6,29.91,WSW,244,2.0,5.0,82,0.00,CLR,,0.00,WeatherDisplay:10.37,2013-04-19 14:39:00,
2013-04-19 10:44:00,64.2,58.6,29.91,WSW,240,3.0,5.0,82,0.00,CLR,,0.00,WeatherDisplay:10.37,2013-04-19 14:44:00,
2013-04-19 10:49:00,64.2,58.6,29.91,WSW,245,3.0,7.0,82,0.00,CLR,,0.00,WeatherDisplay:10.37,2013-04-19 14:49:00,
2013-04-19 10:54:00,64.4,58.8,29.91,WSW,239,1.0,4.0,82,0.00,CLR,,0.00,WeatherDisplay:10.37,2013-04-19 14:54:00,
2013-04-19 10:59:00,64.6,59.0,29.88,West,259,2.0,5.0,82,0.00,CLR,,0.00,WeatherDisplay:10.37,2013-04-19 14:59:00,
2013-04-19 11:04:00,65.3,59.7,29.88,SW,236,3.0,7.0,82,0.00,CLR,,0.00,WeatherDisplay:10.37,2013-04-19 15:04:00,
2013-04-19 11:09:00,65.7,60.0,29.88,SW,216,5.0,7.0,82,0.00,CLR,,0.00,WeatherDisplay:10.37,2013-04-19 15:09:00,
2013-04-19 11:14:00,65.8,60.2,29.88,SSW,205,3.0,6.0,82,0.00,CLR,,0.00,WeatherDisplay:10.37,2013-04-19 15:14:00,
2013-04-19 11:19:00,66.0,60.0,29.88,SW,224,5.0,9.0,81,0.00,CLR,,0.00,WeatherDisplay:10.37,2013-04-19 15:19:00,
2013-04-19 11:24:00,66.0,60.0,29.88,SSW,203,5.0,7.0,81,0.00,CLR,,0.00,WeatherDisplay:10.37,2013-04-19 15:24:00,
2013-04-19 11:30:00,66.2,60.5,29.88,SSW,206,2.0,6.0,82,0.00,CLR,,0.00,WeatherDisplay:10.37,2013-04-19 15:30:00,
2013-04-19 11:39:00,67.3,61.2,29.88,SSW,205,3.0,14.0,81,0.00,CLR,,0.00,WeatherDisplay:10.37,2013-04-19 15:39:00,
2013-04-19 11:44:00,67.3,60.9,29.85,SSW,192,2.0,9.0,80,0.00,CLR,,0.00,WeatherDisplay:10.37,2013-04-19 15:44:00,
2013-04-19 11:49:00,67.5,61.1,29.85,SW,224,3.0,6.0,80,0.00,CLR,,0.00,WeatherDisplay:10.37,2013-04-19 15:49:00,
2013-04-19 11:54:00,67.9,61.5,29.85,SW,225,2.0,8.0,80,0.00,CLR,,0.00,WeatherDisplay:10.37,2013-04-19 15:54:00,
2013-04-19 11:59:00,68.2,61.5,29.85,WSW,239,10.0,11.0,79,0.00,CLR,,0.00,WeatherDisplay:10.37,2013-04-19 15:59:00,
2013-04-19 12:04:00,68.5,61.8,29.85,West,267,5.0,11.0,79,0.00,CLR,,0.00,WeatherDisplay:10.37,2013-04-19 16:04:00,
2013-04-19 12:09:00,69.1,61.9,29.85,WNW,288,9.0,10.0,78,0.00,CLR,,0.00,WeatherDisplay:10.37,2013-04-19 16:09:00,
2013-04-19 12:14:00,69.8,62.3,29.85,SW,232,3.0,10.0,77,0.00,CLR,,0.00,WeatherDisplay:10.37,2013-04-19 16:14:00,
2013-04-19 12:19:00,70.0,62.4,29.85,SSW,211,5.0,7.0,77,0.00,CLR,,0.00,WeatherDisplay:10.37,2013-04-19 16:19:00,
2013-04-19 12:24:00,70.2,62.2,29.85,SSW,208,5.0,6.0,76,0.00,CLR,,0.00,WeatherDisplay:10.37,2013-04-19 16:24:00,
2013-04-19 12:29:00,70.5,62.2,29.85,South,170,2.0,5.0,75,0.00,CLR,,0.00,WeatherDisplay:10.37,2013-04-19 16:29:00,
2013-04-19 12:34:00,70.5,62.2,29.85,SSW,207,2.0,5.0,75,0.00,CLR,,0.00,WeatherDisplay:10.37,2013-04-19 16:34:00,
2013-04-19 12:39:00,70.5,61.8,29.85,SW,230,3.0,9.0,74,0.00,CLR,,0.00,WeatherDisplay:10.37,2013-04-19 16:39:00,
2013-04-19 12:44:00,70.5,61.4,29.83,SW,224,1.0,7.0,73,0.00,CLR,,0.00,WeatherDisplay:10.37,2013-04-19 16:44:00,
2013-04-19 12:49:00,70.7,61.6,29.83,SSW,208,2.0,4.0,73,0.00,CLR,,0.00,WeatherDisplay:10.37,2013-04-19 16:49:00,
2013-04-19 12:54:00,70.9,61.8,29.83,West,267,2.0,8.0,73,0.00,CLR,,0.00,WeatherDisplay:10.37,2013-04-19 16:54:00,
2013-04-19 12:59:00,71.5,62.4,29.83,SW,218,2.0,8.0,73,0.00,CLR,,0.00,WeatherDisplay:10.37,2013-04-19 16:59:00,
2013-04-19 13:04:00,71.8,62.3,29.83,SW,236,6.0,6.0,72,0.00,CLR,,0.00,WeatherDisplay:10.37,2013-04-19 17:04:00,
2013-04-19 13:09:00,72.3,62.4,29.83,SSW,211,2.0,9.0,71,0.00,CLR,,0.00,WeatherDisplay:10.37,2013-04-19 17:09:00,
2013-04-19 13:14:00,72.5,62.6,29.83,SW,226,5.0,5.0,71,0.00,CLR,,0.00,WeatherDisplay:10.37,2013-04-19 17:14:00,
2013-04-19 13:19:00,71.8,61.5,29.83,West,276,9.0,10.0,70,0.00,CLR,,0.00,WeatherDisplay:10.37,2013-04-19 17:19:00,
2013-04-19 13:24:00,71.4,61.1,29.83,West,267,3.0,11.0,70,0.00,CLR,,0.00,WeatherDisplay:10.37,2013-04-19 17:24:00,
2013-04-19 13:29:00,70.8,61.0,29.83,West,262,2.0,11.0,71,0.00,CLR,,0.00,WeatherDisplay:10.37,2013-04-19 17:29:00,
2013-04-19 13:34:00,70.9,61.0,29.83,West,272,3.0,8.0,71,0.00,CLR,,0.00,WeatherDisplay:10.37,2013-04-19 17:34:00,
2013-04-19 13:39:00,70.7,60.8,29.83,South,175,5.0,9.0,71,0.00,CLR,,0.00,WeatherDisplay:10.37,2013-04-19 17:39:00,
2013-04-19 13:44:00,70.2,60.3,29.80,SW,216,2.0,4.0,71,0.00,CLR,,0.00,WeatherDisplay:10.37,2013-04-19 17:44:00,
2013-04-19 13:49:00,69.8,60.0,29.80,WSW,243,7.0,8.0,71,0.00,CLR,,0.00,WeatherDisplay:10.37,2013-04-19 17:49:00,
2013-04-19 13:54:00,69.4,59.6,29.80,SW,226,2.0,8.0,71,0.00,CLR,,0.00,WeatherDisplay:10.37,2013-04-19 17:54:00,
2013-04-19 13:59:00,69.8,60.0,29.80,WSW,250,3.0,8.0,71,0.00,CLR,,0.00,WeatherDisplay:10.37,2013-04-19 17:59:00,
2013-04-19 14:04:00,69.4,59.6,29.80,West,268,2.0,9.0,71,0.00,CLR,,0.00,WeatherDisplay:10.37,2013-04-19 18:04:00,
2013-04-19 14:09:00,68.7,59.3,29.80,WSW,245,2.0,9.0,72,0.00,CLR,,0.00,WeatherDisplay:10.37,2013-04-19 18:09:00,
2013-04-19 14:14:00,68.4,59.0,29.80,South,187,0.0,13.0,72,0.00,CLR,,0.00,WeatherDisplay:10.37,2013-04-19 18:14:00,
2013-04-19 14:19:00,68.2,58.8,29.80,South,176,3.0,4.0,72,0.00,CLR,,0.00,WeatherDisplay:10.37,2013-04-19 18:19:00,
2013-04-19 14:24:00,67.7,58.8,29.80,SSE,162,6.0,8.0,73,0.00,CLR,,0.00,WeatherDisplay:10.37,2013-04-19 18:24:00,
2013-04-19 14:29:00,67.5,58.9,29.80,WSW,254,3.0,9.0,74,0.00,CLR,,0.00,WeatherDisplay:10.37,2013-04-19 18:29:00,
2013-04-19 14:34:00,67.3,58.7,29.80,WSW,253,3.0,7.0,74,0.00,CLR,,0.00,WeatherDisplay:10.37,2013-04-19 18:34:00,
2013-04-19 14:39:00,66.7,58.6,29.80,SW,235,1.0,5.0,75,0.00,CLR,,0.00,WeatherDisplay:10.37,2013-04-19 18:39:00,
2013-04-19 14:44:00,66.0,58.6,29.80,WSW,245,2.0,5.0,77,0.00,CLR,,0.00,WeatherDisplay:10.37,2013-04-19 18:44:00,
2013-04-19 14:49:00,65.7,58.7,29.80,South,177,2.0,6.0,78,0.00,CLR,,0.00,WeatherDisplay:10.37,2013-04-19 18:49:00,
2013-04-19 14:54:00,65.5,58.8,29.80,SSW,205,1.0,3.0,79,0.00,CLR,,0.00,WeatherDisplay:10.37,2013-04-19 18:54:00,
2013-04-19 14:59:00,65.3,58.9,29.80,SSW,202,1.0,2.0,80,0.00,CLR,,0.00,WeatherDisplay:10.37,2013-04-19 18:59:00,
2013-04-19 15:04:00,64.9,59.0,29.80,SW,235,6.0,7.0,81,0.00,CLR,,0.00,WeatherDisplay:10.37,2013-04-19 19:04:00,
2013-04-19 15:09:00,64.8,58.8,29.80,WSW,242,1.0,7.0,81,0.00,CLR,,0.00,WeatherDisplay:10.37,2013-04-19 19:09:00,
2013-04-19 15:14:00,64.6,59.0,29.77,SW,221,2.0,3.0,82,0.00,CLR,,0.00,WeatherDisplay:10.37,2013-04-19 19:14:00,
2013-04-19 15:19:00,64.2,58.9,29.77,SSW,213,5.0,6.0,83,0.00,CLR,,0.00,WeatherDisplay:10.37,2013-04-19 19:19:00,
2013-04-19 15:24:00,64.0,58.8,29.77,SSW,212,3.0,7.0,83,0.00,CLR,,0.00,WeatherDisplay:10.37,2013-04-19 19:24:00,
2013-04-19 15:29:00,64.0,58.8,29.77,SSW,206,0.0,5.0,83,0.00,CLR,,0.00,WeatherDisplay:10.37,2013-04-19 19:29:00,
2013-04-19 15:34:00,64.0,59.1,29.77,SSW,192,3.0,9.0,84,0.00,CLR,,0.00,WeatherDisplay:10.37,2013-04-19 19:34:00,
2013-04-19 15:39:00,64.0,59.1,29.77,SW,214,3.0,5.0,84,0.00,CLR,,0.00,WeatherDisplay:10.37,2013-04-19 19:39:00,
2013-04-19 15:44:00,64.0,59.4,29.77,SW,231,1.0,2.0,85,0.00,CLR,,0.00,WeatherDisplay:10.37,2013-04-19 19:44:00,
2013-04-19 15:49:00,63.9,58.9,29.77,SSW,207,1.0,3.0,84,0.00,CLR,,0.00,WeatherDisplay:10.37,2013-04-19 19:49:00,
2013-04-19 15:54:00,63.9,59.3,29.77,SSW,212,6.0,6.0,85,0.00,CLR,,0.00,WeatherDisplay:10.37,2013-04-19 19:54:00,
2013-04-19 15:59:00,63.9,59.3,29.74,SW,217,5.0,6.0,85,0.00,CLR,,0.00,WeatherDisplay:10.37,2013-04-19 19:59:00,
2013-04-19 16:04:00,63.7,59.1,29.74,SW,225,3.0,5.0,85,0.00,CLR,,0.00,WeatherDisplay:10.37,2013-04-19 20:04:00,
2013-04-19 16:09:00,63.7,59.4,29.74,WSW,242,2.0,12.0,86,0.00,CLR,,0.00,WeatherDisplay:10.37,2013-04-19 20:09:00,
2013-04-19 16:14:00,63.5,59.2,29.74,SSW,210,1.0,12.0,86,0.00,CLR,,0.00,WeatherDisplay:10.37,2013-04-19 20:14:00,
2013-04-19 16:19:00,63.5,59.6,29.74,SW,217,1.0,5.0,87,0.00,CLR,,0.00,WeatherDisplay:10.37,2013-04-19 20:19:00,
2013-04-19 16:24:00,63.3,59.4,29.74,WSW,245,3.0,4.0,87,0.00,CLR,,0.00,WeatherDisplay:10.37,2013-04-19 20:24:00,
2013-04-19 16:29:00,63.3,59.4,29.71,SW,214,1.0,5.0,87,0.00,CLR,,0.00,WeatherDisplay:10.37,2013-04-19 20:29:00,
2013-04-19 16:34:00,63.3,59.4,29.71,SSW,207,2.0,4.0,87,0.00,CLR,,0.00,WeatherDisplay:10.37,2013-04-19 20:34:00,
2013-04-19 16:39:00,63.3,59.4,29.71,South,180,2.0,4.0,87,0.00,CLR,,0.00,WeatherDisplay:10.37,2013-04-19 20:39:00,
2013-04-19 16:44:00,63.1,59.5,29.71,SW,231,3.0,5.0,88,0.00,CLR,,0.00,WeatherDisplay:10.37,2013-04-19 20:44:00,
2013-04-19 16:49:00,63.1,59.5,29.71,WSW,254,2.0,5.0,88,0.00,CLR,,0.00,WeatherDisplay:10.37,2013-04-19 20:49:00,
2013-04-19 16:54:00,63.1,59.5,29.71,SSW,201,5.0,6.0,88,0.00,CLR,,0.00,WeatherDisplay:10.37,2013-04-19 20:54:00,
2013-04-19 16:59:00,63.1,59.5,29.71,South,173,3.0,4.0,88,0.00,CLR,,0.00,WeatherDisplay:10.37,2013-04-19 20:59:00,
2013-04-19 17:04:00,63.1,59.5,29.71,SSW,201,6.0,6.0,88,0.00,CLR,,0.00,WeatherDisplay:10.37,2013-04-19 21:04:00,
2013-04-19 17:09:00,63.0,59.3,29.71,SSW,192,5.0,6.0,88,0.00,CLR,,0.00,WeatherDisplay:10.37,2013-04-19 21:09:00,
2013-04-19 17:14:00,62.8,59.2,29.71,South,174,2.0,6.0,88,0.00,CLR,,0.00,WeatherDisplay:10.37,2013-04-19 21:14:00,
2013-04-19 17:19:00,62.6,59.0,29.71,South,182,5.0,7.0,88,0.00,CLR,,0.00,WeatherDisplay:10.37,2013-04-19 21:19:00,
2013-04-19 17:24:00,62.2,58.6,29.71,South,180,2.0,6.0,88,0.00,CLR,,0.00,WeatherDisplay:10.37,2013-04-19 21:24:00,
2013-04-19 17:29:00,62.1,58.8,29.71,SE,145,3.0,5.0,89,0.00,CLR,,0.00,WeatherDisplay:10.37,2013-04-19 21:29:00,
2013-04-19 17:34:00,61.9,58.3,29.71,South,184,5.0,7.0,88,0.00,CLR,,0.00,WeatherDisplay:10.37,2013-04-19 21:34:00,
2013-04-19 17:39:00,61.9,58.3,29.71,SW,226,3.0,7.0,88,0.00,CLR,,0.00,WeatherDisplay:10.37,2013-04-19 21:39:00,
2013-04-19 17:44:00,61.7,58.1,29.71,WSW,257,1.0,4.0,88,0.00,CLR,,0.00,WeatherDisplay:10.37,2013-04-19 21:44:00,
2013-04-19 17:49:00,61.5,57.9,29.71,SSW,201,1.0,3.0,88,0.00,CLR,,0.00,WeatherDisplay:10.37,2013-04-19 21:49:00,
2013-04-19 17:54:00,61.3,57.8,29.71,SSW,206,6.0,7.0,88,0.00,CLR,,0.00,WeatherDisplay:10.37,2013-04-19 21:54:00,
2013-04-19 17:59:00,61.3,57.8,29.71,SW,232,1.0,7.0,88,0.00,CLR,,0.00,WeatherDisplay:10.37,2013-04-19 21:59:00,
2013-04-19 18:04:00,61.2,57.6,29.71,NW,304,3.0,5.0,88,0.00,CLR,,0.00,WeatherDisplay:10.37,2013-04-19 22:04:00,
2013-04-19 18:09:00,61.0,57.4,29.71,SW,230,6.0,6.0,88,0.00,CLR,,0.00,WeatherDisplay:10.37,2013-04-19 22:09:00,
2013-04-19 18:14:00,60.8,57.2,29.71,WSW,243,2.0,6.0,88,0.00,CLR,,0.00,WeatherDisplay:10.37,2013-04-19 22:14:00,
2013-04-19 18:19:00,60.6,57.4,29.71,West,280,5.0,6.0,89,0.00,CLR,,0.00,WeatherDisplay:10.37,2013-04-19 22:19:00,
2013-04-19 18:24:00,60.4,57.2,29.71,WSW,244,3.0,8.0,89,0.00,CLR,,0.00,WeatherDisplay:10.37,2013-04-19 22:24:00,
2013-04-19 18:29:00,60.4,57.2,29.68,WSW,237,2.0,6.0,89,0.00,CLR,,0.00,WeatherDisplay:10.37,2013-04-19 22:29:00,
2013-04-19 18:34:00,60.3,57.0,29.68,SW,227,3.0,7.0,89,0.00,CLR,,0.00,WeatherDisplay:10.37,2013-04-19 22:34:00,
2013-04-19 18:39:00,60.1,57.1,29.68,SW,221,2.0,3.0,90,0.00,CLR,,0.00,WeatherDisplay:10.37,2013-04-19 22:39:00,
2013-04-19 18:44:00,60.1,57.1,29.71,SSW,193,3.0,5.0,90,0.00,CLR,,0.00,WeatherDisplay:10.37,2013-04-19 22:44:00,
2013-04-19 18:49:00,60.1,57.1,29.71,SW,229,2.0,4.0,90,0.00,CLR,,0.00,WeatherDisplay:10.37,2013-04-19 22:49:00,
2013-04-19 18:54:00,59.9,57.0,29.71,WNW,283,3.0,3.0,90,0.00,CLR,,0.00,WeatherDisplay:10.37,2013-04-19 22:54:00,
2013-04-19 18:59:00,59.9,57.0,29.68,SSW,212,6.0,8.0,90,0.00,CLR,,0.00,WeatherDisplay:10.37,2013-04-19 22:59:00,
2013-04-19 19:04:00,59.9,57.3,29.68,SSW,193,3.0,3.0,91,0.00,CLR,,0.00,WeatherDisplay:10.37,2013-04-19 23:04:00,
2013-04-19 19:09:00,59.9,57.3,29.68,South,191,1.0,8.0,91,0.00,CLR,,0.00,WeatherDisplay:10.37,2013-04-19 23:09:00,
2013-04-19 19:14:00,59.9,57.3,29.68,SW,224,3.0,10.0,91,0.00,CLR,,0.00,WeatherDisplay:10.37,2013-04-19 23:14:00,
2013-04-19 19:19:00,60.1,57.7,29.68,WSW,255,5.0,7.0,92,0.00,CLR,,0.00,WeatherDisplay:10.37,2013-04-19 23:19:00,
2013-04-19 19:24:00,60.1,57.7,29.68,West,265,3.0,6.0,92,0.00,CLR,,0.00,WeatherDisplay:10.37,2013-04-19 23:24:00,
2013-04-19 19:29:00,60.3,57.9,29.68,WSW,251,3.0,8.0,92,0.00,CLR,,0.00,WeatherDisplay:10.37,2013-04-19 23:29:00,
2013-04-19 19:39:00,60.4,58.4,29.68,SSW,208,5.0,9.0,93,0.00,CLR,,0.00,WeatherDisplay:10.37,2013-04-19 23:39:00,
2013-04-19 19:44:00,60.4,58.4,29.68,SW,234,7.0,7.0,93,0.00,CLR,,0.00,WeatherDisplay:10.37,2013-04-19 23:44:00,
2013-04-19 19:49:00,60.6,58.6,29.68,WSW,240,3.0,7.0,93,0.00,CLR,,0.00,WeatherDisplay:10.37,2013-04-19 23:49:00,
2013-04-19 19:59:00,60.6,58.6,29.68,SSW,206,2.0,8.0,93,0.00,CLR,,0.00,WeatherDisplay:10.37,2013-04-19 23:59:00,
2013-04-19 20:04:00,60.6,58.6,29.68,SSE,168,3.0,5.0,93,0.00,CLR,,0.00,WeatherDisplay:10.37,2013-04-20 00:04:00,
2013-04-19 20:09:00,60.6,58.6,29.68,SSW,208,8.0,14.0,93,0.00,CLR,,0.00,WeatherDisplay:10.37,2013-04-20 00:09:00,
2013-04-19 20:14:00,60.6,58.6,29.68,SW,221,2.0,14.0,93,0.00,CLR,,0.00,WeatherDisplay:10.37,2013-04-20 00:14:00,
2013-04-19 20:19:00,60.6,58.6,29.68,SW,222,6.0,10.0,93,0.00,CLR,,0.00,WeatherDisplay:10.37,2013-04-20 00:19:00,
2013-04-19 20:24:00,60.6,58.6,29.68,SW,235,6.0,15.0,93,0.00,CLR,,0.00,WeatherDisplay:10.37,2013-04-20 00:24:00,
2013-04-19 20:29:00,60.6,58.9,29.68,SW,225,3.0,10.0,94,0.00,CLR,,0.00,WeatherDisplay:10.37,2013-04-20 00:29:00,
2013-04-19 20:34:00,60.6,58.9,29.68,SSW,202,1.0,3.0,94,0.00,CLR,,0.00,WeatherDisplay:10.37,2013-04-20 00:34:00,
2013-04-19 20:39:00,60.6,58.9,29.68,SW,218,2.0,7.0,94,0.00,CLR,,0.00,WeatherDisplay:10.37,2013-04-20 00:39:00,
2013-04-19 20:44:00,60.6,58.9,29.65,South,188,3.0,5.0,94,0.00,CLR,,0.00,WeatherDisplay:10.37,2013-04-20 00:44:00,
2013-04-19 20:49:00,60.6,58.9,29.65,SW,214,9.0,12.0,94,0.00,CLR,,0.00,WeatherDisplay:10.37,2013-04-20 00:49:00,
2013-04-19 20:54:00,60.6,58.9,29.65,WSW,244,2.0,12.0,94,0.00,CLR,,0.00,WeatherDisplay:10.37,2013-04-20 00:54:00,
2013-04-19 20:59:00,60.6,58.9,29.68,SW,228,3.0,13.0,94,0.00,CLR,,0.00,WeatherDisplay:10.37,2013-04-20 00:59:00,
2013-04-19 21:04:00,60.6,58.9,29.68,WSW,250,2.0,13.0,94,0.00,CLR,,0.00,WeatherDisplay:10.37,2013-04-20 01:04:00,
2013-04-19 21:09:00,60.6,58.9,29.68,West,266,6.0,8.0,94,0.00,CLR,,0.00,WeatherDisplay:10.37,2013-04-20 01:09:00,
2013-04-19 21:14:00,60.6,58.9,29.68,WSW,238,7.0,8.0,94,0.00,CLR,,0.00,WeatherDisplay:10.37,2013-04-20 01:14:00,
2013-04-19 21:29:00,60.6,58.9,29.68,WSW,254,3.0,10.0,94,0.00,CLR,,0.00,WeatherDisplay:10.37,2013-04-20 01:29:00,
2013-04-19 21:34:00,60.6,58.9,29.68,SW,221,5.0,8.0,94,0.00,CLR,,0.00,WeatherDisplay:10.37,2013-04-20 01:34:00,
2013-04-19 21:39:00,60.6,58.9,29.68,SW,234,5.0,7.0,94,0.00,CLR,,0.00,WeatherDisplay:10.37,2013-04-20 01:39:00,
2013-04-19 21:44:00,60.4,58.4,29.68,WSW,242,9.0,10.0,93,0.00,CLR,,0.00,WeatherDisplay:10.37,2013-04-20 01:44:00,
2013-04-19 21:49:00,60.4,58.7,29.68,WSW,251,10.0,15.0,94,0.00,CLR,,0.00,WeatherDisplay:10.37,2013-04-20 01:49:00,
2013-04-19 21:54:00,60.4,58.7,29.68,WSW,245,3.0,6.0,94,0.00,CLR,,0.00,WeatherDisplay:10.37,2013-04-20 01:54:00,
2013-04-19 21:59:00,60.4,58.7,29.68,SW,218,6.0,9.0,94,0.00,CLR,,0.00,WeatherDisplay:10.37,2013-04-20 01:59:00,
2013-04-19 22:04:00,60.4,58.7,29.68,SW,216,8.0,8.0,94,0.00,CLR,,0.00,WeatherDisplay:10.37,2013-04-20 02:04:00,
2013-04-19 22:09:00,60.4,58.7,29.68,SSW,213,2.0,8.0,94,0.00,CLR,,0.00,WeatherDisplay:10.37,2013-04-20 02:09:00,
2013-04-19 22:14:00,60.4,58.7,29.68,WSW,237,6.0,12.0,94,0.00,CLR,,0.00,WeatherDisplay:10.37,2013-04-20 02:14:00,
2013-04-19 22:19:00,60.4,58.7,29.68,SW,218,2.0,8.0,94,0.00,CLR,,0.00,WeatherDisplay:10.37,2013-04-20 02:19:00,
2013-04-19 22:24:00,60.4,58.7,29.68,WSW,242,3.0,6.0,94,0.00,CLR,,0.00,WeatherDisplay:10.37,2013-04-20 02:24:00,
2013-04-19 22:29:00,60.4,58.7,29.68,SW,230,5.0,7.0,94,0.00,CLR,,0.00,WeatherDisplay:10.37,2013-04-20 02:29:00,
2013-04-19 22:34:00,60.4,58.7,29.68,SSW,204,7.0,10.0,94,0.00,CLR,,0.00,WeatherDisplay:10.37,2013-04-20 02:34:00,
2013-04-19 22:39:00,60.4,58.7,29.68,SSW,200,3.0,6.0,94,0.00,CLR,,0.00,WeatherDisplay:10.37,2013-04-20 02:39:00,
2013-04-19 22:44:00,60.4,58.7,29.65,SSW,198,2.0,9.0,94,0.00,CLR,,0.00,WeatherDisplay:10.37,2013-04-20 02:44:00,
2013-04-19 22:49:00,60.3,58.5,29.65,WSW,248,1.0,10.0,94,0.00,CLR,,0.00,WeatherDisplay:10.37,2013-04-20 02:49:00,
2013-04-19 22:54:00,60.3,58.5,29.65,WSW,255,7.0,7.0,94,0.00,CLR,,0.00,WeatherDisplay:10.37,2013-04-20 02:54:00,
2013-04-19 22:59:00,60.3,58.5,29.65,SSW,206,3.0,4.0,94,0.00,CLR,,0.00,WeatherDisplay:10.37,2013-04-20 02:59:00,
2013-04-19 23:04:00,60.3,58.6,29.65,SW,228,3.0,5.0,94,0.00,CLR,,0.00,WeatherDisplay:10.37,2013-04-20 03:04:00,
2013-04-19 23:09:00,60.4,58.7,29.65,SW,231,8.0,9.0,94,0.00,CLR,,0.00,WeatherDisplay:10.37,2013-04-20 03:09:00,
2013-04-19 23:14:00,60.4,59.0,29.65,SSW,198,5.0,11.0,95,0.00,CLR,,0.00,WeatherDisplay:10.37,2013-04-20 03:14:00,
2013-04-19 23:19:00,60.4,59.0,29.65,SSW,192,8.0,12.0,95,0.00,CLR,,0.00,WeatherDisplay:10.37,2013-04-20 03:19:00,
2013-04-19 23:24:00,60.6,59.2,29.65,SW,214,5.0,13.0,95,0.00,CLR,,0.00,WeatherDisplay:10.37,2013-04-20 03:24:00,
2013-04-19 23:29:00,60.6,59.2,29.62,SW,225,7.0,10.0,95,0.00,CLR,,0.00,WeatherDisplay:10.37,2013-04-20 03:29:00,
2013-04-19 23:34:00,60.6,59.2,29.62,SW,229,2.0,10.0,95,0.00,CLR,,0.00,WeatherDisplay:10.37,2013-04-20 03:34:00,
2013-04-19 23:39:00,60.6,59.2,29.62,West,269,7.0,13.0,95,0.00,CLR,,0.00,WeatherDisplay:10.37,2013-04-20 03:39:00,
2013-04-19 23:44:00,60.6,59.2,29.62,WSW,241,6.0,13.0,95,0.00,CLR,,0.00,WeatherDisplay:10.37,2013-04-20 03:44:00,
2013-04-19 23:49:00,60.6,59.2,29.62,SSW,212,3.0,6.0,95,0.04,RA,,0.04,WeatherDisplay:10.37,2013-04-20 03:49:00,
2013-04-19 23:54:00,60.6,59.2,29.62,SW,232,2.0,6.0,95,0.00,RA,,0.04,WeatherDisplay:10.37,2013-04-20 03:54:00,
2013-04-19 23:59:00,60.6,59.2,29.62,SW,218,21.0,24.0,95,0.00,RA,,0.00,WeatherDisplay:10.37,2013-04-20 03:59:00,